SCP
0 0 0 0 0 0 0 0 0 0 0 0 0 0 0 0 0 0 0 0 0 0 0 0 0 0 0 0 0 0 0 0 0 0 0 0 0 0 0 0 0 0 0
0 0 0 0 0 0 0 0 0 0 0 0 0 0 0 0 0 0 0 0 0 0 0 0 0 0 0 0 0 0 0 0 0 0 0 0 0 0 0 0 0 0 0
0 0 0 0 0 0 0 0 0 0 0 0 0 0 0 0 0 0 0 0 0 0 0 0 0 0 0 0 0 0 0 0 0 0 0 0 0 0 0 0 0 0 0
0 0 0 0 0 0 0 0 0 0 0 0 0 0 0 0 0 0 0 0 0 0 0 0 0 0 0 0 0 0 0 0 0 0 0 0 0 0 0 0 0 0 0
0 0 0 0 0 0 0 0 0 0 0 0 0 0 0 0 0 0 0 0 0 0 0 0 0 0 0 0 0 0 0 0 0 0 0 0 0 0 0 0 0 0 0
0 0 0 0 0 0 0 0 0 0 0 0 0 0 0 0 0 0 0 0 0 0 0 0 0 0 0 0 0 0 0 0 0 0 0 0 0 0 0 0 0 0 0
0 0 0 0 0 0 0 0 0 0 0 0 0 0 0 0 0 0 0 0 0 0 0 0 0 0 0 0 0 0 0 0 0 0 0 0 0 0 0 0 0 0 0
0 0 0 0 0 0 0 0 0 0 0 0 0 0 0 0 0 0 0 0 0 0 0 0 0 0 0 0 0 0 0 0 0 0 0 0 0 0 0 0 0 0 0
0 0 0 0 0 0 0 0 0 0 0 0 0 0 0 0 0 0 0 0 0 0 0 0 0 0 0 0 0 0 0 0 0 0 0 0 0 0 0 0 0 0 0
0 0 0 0 0 0 0 0 0 0 0 0 0 0 0 0 0 0 0 0 0 0 0 0 0 0 0 0 0 0 0 0 0 0 0 0 0 0 0 0 0 0 0
0 0 0 0 0 0 0 0 0 0 0 0 0 0 0 0 0 0 0 0 0 0 0 0 0 0 0 0 0 0 0 0 0 0 0 0 0 0 0 0 0 0 0
0 0 0 0 0 0 0 0 0 0 0 0 0 0 0 0 0 0 0 0 0 0 0 0 0 0 0 0 0 0 0 0 0 0 0 0 0 0 0 0 0 0 0
0 0 0 0 0 0 0 0 0 0 0 0 0 0 0 0 0 0 0 0 0 0 0 0 0 0 0 0 0 0 0 0 0 0 0 0 0 0 0 0 0 0 0
0 0 0 0 0 0 0 0 0 0 0 0 0 0 0 0 0 0 0 0 0 0 0 0 0 0 0 0 0 0 0 0 0 0 0 0 0 0 0 0 0 0 0
0 0 0 0 0 0 0 0 0 0 0 0 0 0 0 0 0 0 0 0 0 0 0 0 0 0 0 0 0 0 0 0 0 0 0 0 0 0 0 0 0 0 0
0 0 0 0 0 0 0 0 0 0 0 0 0 0 0 0 0 0 0 0 0 0 0 0 0 0 0 0 0 0 0 0 0 0 0 0 0 0 0 0 0 0 0
0 0 0 0 0 0 0 0 0 0 0 0 0 0 0 0 0 0 0 0 0 0 0 0 0 0 0 0 0 0 0 0 0 0 0 0 0 0 0 0 0 0 0
0 0 0 0 0 0 0 0 0 0 0 0 0 0 0 0 0 0 0 0 0 0 0 0 0 0 0 0 0 0 0 0 0 0 0 0 0 0 0 0 0 0 0
0 0 0 0 0 0 0 0 0 0 0 0 0 0 0 0 0 0 0 0 0 0 0 0 0 0 0 0 0 0 0 0 0 0 0 0 0 0 0 0 0 0 0
0 0 0 0 0 0 0 0 0 0 0 0 0 0 0 0 0 0 0 0 0 0 0 0 0 0 0 0 0 0 0 0 0 0 0 0 0 0 0 0 0 0 0
0 0 0 0 0 0 0 0 0 0 0 0 0 -0 -0 -0 -0 -0 -0 0 0 0 0 0 0 0 0 0 0 0 0 0 0 0 0 0 0 0 0 0 0 0 0
0 0 0 0 0 0 0 0 -0 -0 -0 -0 0 0 0 0 0 0 0 0 0 0 0 0 0 -0 0 0 0 0 0 0 0 0 0 0 0 0 0 0 0 0 0
0 0 0 0 0 0 0 0 -0 -0 -0 -0 -0 -0 0 0 0 0 0 0 0 0 0 -0 -0 -0 -0 0 0 0 0 0 0 0 0 0 0 0 0 0 0 0 0
0 0 0 0 0 0 0 0 0 -0 -0 -0 -0 -0 -0 0 0 0 0 0 0 0 0 -0 -0 -0 -0 -0 0 0 0 0 0 0 0 0 0 0 0 0 0 0 0
0 0 0 0 0 0 0 0 0 0 0 0 -0 -0 -0 -0 -0 -0 0 0 0 0 0 0 0 -0 -0 -0 0 0 0 0 0 0 0 0 0 0 0 0 0 0 0
0 0 0 0 0 0 0 0 0 0 0 0 0 -0 -0 -0 -0 -0 0 0 0 0 0 0 0 0 -0 -0 -0 0 0 0 0 0 0 0 0 0 0 0 0 0 0
Wind_Speed
1 1 3 7 9 10 10 10 10 10 10 10 10 10 10 10 9 9 9 9 9 9 8 8 8 8 8 8 8 7 7 7 8 8 8 8 8 9 9 8 7 4 6
1 1 5 8 9 10 10 10 10 10 10 10 9 9 9 9 9 9 9 8 8 8 8 8 8 8 7 7 7 7 7 7 8 8 8 8 8 9 9 8 8 5 7
3 2 4 9 10 10 10 10 10 10 10 9 9 9 9 9 8 8 8 8 8 8 8 8 7 8 7 7 7 7 7 8 8 8 8 5 5 8 9 9 8 8 8
4 3 5 8 10 10 9 9 9 9 9 9 9 9 9 8 8 8 8 8 8 8 8 8 7 7 7 7 7 6 7 8 8 8 5 4 4 7 9 9 9 9 8
4 4 4 9 9 9 9 9 9 9 8 8 8 8 8 8 8 8 7 7 7 7 7 7 7 7 7 7 7 7 8 9 9 7 4 4 4 7 8 8 9 9 9
4 3 4 9 9 9 8 8 8 8 8 8 8 8 8 8 8 7 7 7 7 7 7 7 6 6 6 7 8 8 9 9 8 4 4 4 3 6 8 9 9 9 9
4 3 3 8 8 8 7 7 7 7 7 7 8 8 7 7 7 7 7 7 7 7 7 7 7 6 7 7 8 8 8 8 5 4 3 3 4 8 9 9 9 9 10
4 3 3 6 7 7 6 7 7 7 7 7 6 6 6 6 6 6 6 6 7 8 8 8 8 7 7 8 8 8 8 7 5 4 4 3 6 8 9 9 9 9 10
3 3 3 3 3 5 5 6 6 6 6 6 6 6 6 6 6 6 6 6 7 7 8 8 8 8 8 8 9 9 9 9 5 3 4 3 6 8 8 9 9 9 9
3 3 2 3 3 3 3 5 6 6 6 6 6 6 7 7 7 7 6 6 6 7 8 8 8 8 8 8 9 9 9 7 4 3 2 3 7 8 8 8 8 9 9
2 2 2 2 2 2 2 4 5 6 7 7 6 7 6 4 4 5 6 7 7 8 8 9 8 9 9 8 9 9 7 3 3 3 2 5 7 8 8 8 8 8 8
1 0 1 1 1 2 2 3 3 3 4 4 3 4 3 3 3 5 7 8 8 8 8 9 9 9 7 4 6 7 3 4 3 3 3 7 8 8 9 9 9 9 9
2 1 1 1 1 2 2 2 2 2 2 3 3 3 3 3 3 3 3 4 5 6 5 6 6 4 4 3 3 3 4 3 2 3 4 8 8 8 9 9 9 9 9
2 2 1 2 1 2 2 2 2 2 2 2 2 3 2 2 3 3 2 3 3 2 3 3 3 4 4 4 4 4 4 3 3 2 4 9 9 9 9 9 9 9 10
3 3 2 2 2 2 2 1 2 2 2 2 2 2 2 2 2 2 2 2 3 3 3 3 3 4 5 5 5 5 5 5 4 4 4 9 10 10 10 9 9 9 10
4 4 3 3 3 3 2 2 1 1 2 2 2 2 3 2 2 2 2 3 3 3 3 3 4 4 4 4 5 5 5 4 4 4 4 6 11 11 11 10 10 10 10
4 4 4 4 3 3 3 2 2 2 2 2 2 3 3 3 3 3 2 3 2 3 3 3 4 4 4 4 5 5 4 4 4 5 5 4 5 9 12 11 11 11 11
4 4 4 4 4 4 3 2 2 2 3 2 2 2 3 3 3 3 3 3 2 3 3 3 3 4 4 4 4 4 4 4 5 5 4 5 4 5 8 12 12 12 12
5 5 4 4 5 4 3 3 3 3 3 2 2 3 3 4 4 3 3 2 3 3 3 3 3 3 3 4 4 4 4 4 4 5 5 6 5 5 4 8 12 12 13
5 5 5 4 4 4 3 3 3 3 3 2 2 2 3 3 3 3 3 3 3 3 3 3 4 4 3 3 4 5 4 4 4 4 4 4 4 5 5 6 5 7 12
4 5 5 5 4 4 2 2 2 1 1 2 2 3 3 3 3 3 3 3 3 3 3 3 3 4 3 2 3 3 4 4 4 4 4 4 5 5 5 5 4 4 5
6 6 5 5 5 4 3 2 2 2 1 1 1 2 3 3 2 3 3 3 3 3 4 3 3 2 2 3 2 2 2 4 4 4 4 4 4 4 4 5 5 5 4
7 7 7 6 6 5 4 3 3 3 2 2 2 1 2 2 2 3 3 3 3 3 3 2 2 3 2 2 2 3 3 1 2 3 3 3 4 3 3 3 5 5 5
8 6 6 6 5 5 5 4 4 3 2 1 1 0 1 2 2 2 3 3 3 2 2 2 2 2 3 1 2 2 2 3 2 1 3 3 3 3 4 4 4 5 5
7 6 6 5 5 5 5 5 4 3 2 1 1 1 1 2 2 2 2 3 3 2 2 2 3 3 2 2 1 1 2 2 2 2 1 3 3 3 3 3 3 3 4
5 5 5 6 5 5 5 5 5 5 4 3 1 1 0 1 1 1 2 2 2 2 2 2 2 3 2 2 1 1 2 2 1 2 1 1 2 3 3 3 2 3 3
Wind_Direction
313 302 99 99 100 97 94 90 91 90 87 86 86 88 86 87 83 79 75 73 71 70 72 72 74 76 75 73 75 75 76 75 73 70 67 64 61 60 58 56 55 53 71
148 76 104 101 101 97 93 91 91 89 87 86 84 85 84 83 82 79 74 71 72 70 70 69 69 73 71 69 68 69 71 73 72 65 58 54 58 60 59 56 55 58 63
106 91 99 100 100 96 93 90 88 87 85 84 81 81 81 81 80 78 73 68 68 69 68 65 65 68 69 69 68 69 71 70 72 62 52 33 43 59 58 54 55 56 56
107 89 97 103 99 96 93 92 88 84 84 83 82 81 80 80 80 78 73 67 64 64 63 61 63 65 68 68 66 69 77 73 72 67 46 29 31 56 57 52 51 54 53
95 85 100 106 100 96 93 91 89 85 82 82 81 80 78 77 75 72 70 66 62 60 59 58 58 63 65 66 68 75 82 75 70 62 45 32 26 53 56 53 51 53 54
97 88 106 109 104 98 94 90 86 83 80 79 79 78 77 73 71 68 64 61 57 54 55 56 57 62 67 69 75 79 80 72 63 51 42 31 27 53 57 59 54 52 52
101 90 104 111 108 103 95 90 86 84 80 76 73 72 70 67 65 61 60 57 52 51 52 50 54 63 69 72 77 80 80 75 66 53 42 32 40 56 56 58 55 52 51
104 84 78 99 103 102 93 87 84 80 76 73 68 66 61 57 55 53 52 52 51 51 52 51 54 61 68 74 78 78 77 71 61 54 44 32 51 60 58 57 55 51 49
86 78 55 53 66 83 87 84 81 74 67 61 55 53 50 47 44 43 43 46 53 53 53 55 58 57 67 75 78 75 71 69 56 38 43 29 53 60 57 55 54 51 49
70 66 59 47 44 39 38 63 66 61 54 49 44 41 41 36 30 30 31 40 51 55 55 58 58 60 68 74 79 76 72 65 49 37 23 35 54 60 57 52 51 48 46
82 51 55 55 44 42 26 48 45 43 38 37 29 30 37 27 17 16 18 36 44 49 50 54 57 63 67 67 74 73 68 57 48 36 18 46 57 59 56 52 48 46 43
153 53 80 68 49 40 37 45 31 29 27 29 27 26 32 31 21 27 19 31 38 43 45 51 56 59 60 52 62 65 59 56 48 31 31 46 57 60 56 51 48 43 40
196 215 171 140 65 64 50 46 34 25 22 23 27 29 39 41 29 29 24 20 23 34 36 40 48 48 53 55 58 60 58 61 49 28 25 42 49 54 56 52 47 40 35
182 213 189 141 101 70 72 52 43 30 25 25 22 35 54 54 42 30 31 20 27 28 40 45 53 54 57 58 63 64 57 54 47 31 25 40 43 44 48 49 47 41 37
184 193 187 152 131 100 81 62 64 41 37 38 33 40 66 71 57 38 29 31 32 38 48 52 59 59 55 53 57 62 58 53 49 42 25 37 40 41 41 42 42 41 38
189 185 173 149 141 121 102 81 65 49 46 52 47 48 67 79 78 61 46 39 35 41 48 59 63 66 59 57 55 55 54 51 48 43 34 29 37 41 40 37 36 37 35
185 170 162 152 131 121 113 93 74 54 60 58 50 53 69 79 82 82 66 51 38 48 59 62 58 61 63 59 52 47 46 42 44 39 33 28 24 33 38 37 34 33 33
171 160 166 151 132 128 117 101 79 61 60 54 50 54 65 74 81 81 73 55 46 59 64 71 63 66 58 56 50 38 38 38 40 40 36 32 27 26 28 35 36 33 32
172 160 151 139 140 136 119 99 81 68 59 48 48 51 56 66 71 78 73 59 60 68 61 73 62 74 73 63 61 48 37 39 35 42 37 34 30 30 26 29 32 31 29
165 153 144 139 139 127 107 88 69 57 46 39 40 47 59 68 78 83 77 63 66 73 63 67 73 63 70 69 70 55 40 37 40 37 30 29 28 30 29 28 20 19 26
159 156 155 149 152 142 125 114 101 76 40 31 28 41 56 72 84 86 85 72 70 79 80 85 88 70 49 36 68 43 24 34 44 33 28 32 27 23 25 27 20 15 10
177 175 170 167 166 167 151 137 132 127 102 75 28 37 43 63 76 92 93 88 81 87 76 72 85 89 47 32 90 85 26 1 7 21 19 29 19 14 22 24 19 16 9
186 186 183 181 174 171 150 114 91 69 49 36 22 15 14 46 66 82 95 97 86 88 92 81 87 106 102 38 54 119 127 207 322 344 8 16 10 15 8 5 15 10 8
199 188 184 182 176 169 154 149 147 148 160 199 185 45 26 42 66 85 100 101 96 90 92 86 86 99 116 96 51 54 102 146 137 343 336 348 3 16 3 5 4 2 4
193 184 183 176 176 170 166 165 155 151 160 144 108 88 49 32 41 81 103 105 102 97 99 91 85 83 96 119 122 106 82 68 88 129 311 328 343 342 347 349 350 354 356
185 181 176 174 183 176 174 172 171 170 164 152 152 150 64 24 20 64 110 111 114 110 108 105 98 95 93 97 102 116 135 132 141 131 159 294 314 313 327 336 346 344 344